Weather History for Tri-Cities, TN

Change the Weather History Date:

Saturday, May 10, 2014

  Actual Average Record
Temperature  
Mean Temperature 66 °F 62 °F  
Max Temperature 74 °F 74 °F 85 °F (1955)
Min Temperature 57 °F 49 °F 32 °F (1966)
Degree Days  
Heating Degree Days 0 4  
Month to date heating degree days 30 52  
Since 1 July heating degree days 4360 4306  
Cooling Degree Days 1 1  
Month to date cooling degree days 19 10  
Year to date cooling degree days 40 21  
Growing Degree Days 15 (Base 50)    
Moisture  
Dew Point 58 °F    
Average Humidity 73    
Maximum Humidity 97    
Minimum Humidity 49    
Precipitation  
Precipitation 0.19 in 0.11 in 1.13 in (2011)
Month to date precipitation 0.19 1.17  
Year to date precipitation 9.99 14.76  
Snow  
Snow 0.00 in 0.00 in - ()
Month to date snowfall 0.0 0.0  
Since 1 July snowfall 13.0 13.3  
Snow Depth 0.00 in    
Sea Level Pressure  
Sea Level Pressure 30.05 in    
Wind  
Wind Speed 3 mph (WSW)    
Max Wind Speed 15 mph    
Max Gust Speed 19 mph    
Visibility 8 miles    
Events Fog , Rain    
T = Trace of Precipitation, MM = Missing Value Source: NWS Daily Summary

Daily Weather History Graph

Daily Weather History Graph

Search for Another Location

Airport:

Trip Planner

Search our weather history database for the weather conditions in past years. The results will help you decide how hot, cold, wet, or windy it might be!

Date:

Astronomy

May. 10, 2014 Rise Set
Actual Time 6:27 AM EDT 8:25 PM EDT
Civil Twilight 5:58 AM EDT 8:53 PM EDT
Nautical Twilight 5:24 AM EDT 9:28 PM EDT
Astronomical Twilight 4:47 AM EDT 10:05 PM EDT
Moon 4:26 PM EDT (5/10) 3:52 AM EDT (5/10)
Length of Visible Light 14h 55m
Length of Day
13h 58m
Waxing Gibbous, 82% of the Moon is Illuminated
May 10
Waxing Gibbous
May 14
Full
May 21
Last Quarter
May 28
New
Jun 5
First Quarter

Hourly Weather History & Observations

Time (EDT) Temp. Dew Point Humidity Pressure Visibility Wind Dir Wind Speed Gust Speed Precip Events Conditions
12:53 AM 60.1 °F 57.0 °F 90% 30.05 in 10.0 mi Calm Calm - N/A   Partly Cloudy
1:53 AM 59.0 °F 55.9 °F 90% 30.04 in 10.0 mi North 3.5 mph - N/A   Mostly Cloudy
2:53 AM 59.0 °F 55.9 °F 90% 30.01 in 10.0 mi Calm Calm - N/A   Scattered Clouds
3:53 AM 57.9 °F 55.0 °F 90% 30.02 in 10.0 mi Calm Calm - N/A   Scattered Clouds
4:53 AM 59.0 °F 55.9 °F 90% 30.03 in 10.0 mi Calm Calm - N/A   Mostly Cloudy
5:53 AM 59.0 °F 55.9 °F 90% 30.03 in 10.0 mi Calm Calm - N/A   Mostly Cloudy
6:53 AM 59.0 °F 55.4 °F 88% 30.10 in 10.0 mi Calm Calm - N/A   Mostly Cloudy
7:53 AM 61.0 °F 57.0 °F 87% 30.05 in 10.0 mi Calm Calm - N/A   Overcast
8:53 AM 62.1 °F 59.0 °F 90% 30.06 in 8.0 mi SE 3.5 mph - 0.00 in Rain Light Rain
9:53 AM 64.0 °F 59.0 °F 84% 30.05 in 10.0 mi North 4.6 mph - 0.02 in   Overcast
10:53 AM 64.9 °F 61.0 °F 87% 30.05 in 10.0 mi Calm Calm - 0.00 in Rain Light Rain
11:53 AM 66.0 °F 61.0 °F 84% 30.09 in 10.0 mi NW 6.9 mph - 0.01 in Rain Light Rain
12:53 PM 64.9 °F 61.0 °F 87% 30.10 in 3.0 mi West 3.5 mph - 0.04 in Rain Rain
1:53 PM 66.9 °F 62.1 °F 84% 30.06 in 8.0 mi South 5.8 mph - 0.02 in   Overcast
2:53 PM 71.1 °F 57.9 °F 63% 30.02 in 10.0 mi South 8.1 mph - N/A   Mostly Cloudy
3:53 PM 71.1 °F 57.0 °F 61% 30.01 in 10.0 mi WSW 5.8 mph - 0.00 in Rain Light Rain
4:53 PM 73.0 °F 54.0 °F 51% 29.98 in 10.0 mi WSW 10.4 mph - 0.00 in   Mostly Cloudy
5:53 PM 73.0 °F 54.0 °F 51% 29.97 in 10.0 mi SSW 5.8 mph - N/A   Scattered Clouds
6:53 PM 72.0 °F 55.9 °F 57% 29.99 in 10.0 mi West 5.8 mph - N/A   Mostly Cloudy
7:53 PM 66.0 °F 60.1 °F 81% 30.01 in 3.0 mi Calm Calm - 0.07 in Rain Rain
8:07 PM 66.0 °F 61.0 °F 84% 30.07 in 6.0 mi Calm Calm - 0.01 in Rain Light Rain
8:53 PM 64.9 °F 60.1 °F 84% 30.03 in 10.0 mi NNW 3.5 mph - 0.01 in   Mostly Cloudy
9:53 PM 64.9 °F 62.1 °F 90% 30.05 in 10.0 mi SE 5.8 mph - 0.02 in Rain Light Rain
10:38 PM 64.0 °F 62.1 °F 93% 30.11 in 6.0 mi Calm Calm - 0.00 in   Mostly Cloudy
10:53 PM 64.0 °F 61.0 °F 90% 30.05 in 8.0 mi Calm Calm - 0.00 in   Scattered Clouds
11:30 PM 61.0 °F 59.0 °F 93% 30.11 in 0.5 mi Calm Calm - N/A Fog Fog
11:37 PM 61.0 °F 60.1 °F 97% 30.11 in 0.2 mi Calm Calm - N/A Fog Fog
11:53 PM 60.1 °F 59.0 °F 96% 30.06 in 0.2 mi Calm Calm - N/A Fog Fog